Погода в Серноводске

Россия / Самарская область     53°55′19″N   51°15′20″E
темп.,
°C
ветер,
м/с
пор.,
м/с
влажн.,
%
обл.,
%
осадки,
мм/ч
давл.,
гПа
погр.,
м
25 мая, ср
ср2501:00+6св22905 0.0 100627
04:00+5ссз22925 0.0 100718
07:00+7ссз338120 0.0 1007305
10:00+9сз4476100 0.0 1008881
13:00+5зсз5694100 0.4 1010710
16:00+8з467399 0.7 10111150
19:00+9з47688 0.4 1012501
22:00+5з22825 0.4 101429
26 мая, чт
чт2601:00+3зюз23855 0.0 101546
04:00+2зюз22900 0.0 101615
07:00+6зюз23790 0.0 1016242
10:00+10зюз34585 0.0 10161231
13:00+13юз4649100 0.0 10162159
16:00+12зюз565697 0.1 10161546
19:00+11юз376978 0.1 1015279
22:00+8ююз347693 0.1 101580
27 мая, пт
пт2701:00+7ююз367974 0.0 101498
04:00+7ююв31178100 0.0 1013271
07:00+9ю51376100 0.0 1011476
10:00+11ююв81575100 0.0 1009643
13:00+14ю101473100 0.1 10081226
16:00+16ююз7117485 1.3 10071460
19:00+14ююз6107963 1.0 1006517
22:00+11ю4129413 2.5 1008343
28 мая, сб
сб2801:00+10ююз379822 0.3 1008177
04:00+8ю339735 0.3 101048
07:00+11юз359031 0.0 1012299
10:00+15юз457688 0.0 1012876
13:00+18юз686160 0.0 10131526
16:00+20ююз69584 0.0 10131885
19:00+18ююз5107024 0.0 1014360
22:00+13ю398132 0.0 1015168
29 мая, вс
вс2901:00+14ю41374100 0.0 1016327
04:00+14ююз398071 0.1 1016277
07:00+15ююз368249 0.0 1018282
10:00+16ю4884100 0.1 1019392
13:00+21ююз696891 0.8 10181081
16:00+21юз7117385 4.3 10181058
19:00+19зюз3783100 1.6 1018236
22:00+15ссв2296100 2.1 101958